Location: Launois
(49.6535°N, 4.5395°E)
Time: 03:00:59
(UTC+00:00)

IDEFIX/ARIANE 42P - Pass Details

Date: 23 May 2024
Orbit: 783 x 799 km, 98.5° (Epoch: 21 June)

Event Time Altitude Azimuth Distance (km) Brightness Sun altitude
Rises 02:57:15 0° 6° (N) 3,318 6.7 -7.1°
Reaches altitude 10° 02:59:58 10° 353° (N) 2,385 5.6 -6.8°
Maximum altitude 03:04:07 24° 301° (WNW) 1,601 4.0 -6.3°
Drops below altitude 10° 03:08:15 10° 249° (WSW) 2,374 4.5 -5.8°
Enters shadow 03:09:19 - 242° (WSW) 2,725 4.7 -5.6°
